sat.trackr.live / text

‹ back to catalog

O3B MPOWER F9

NORAD 64866 · 2025-153A

PAYLOAD ACTIVE UNKNOWN

§ Identity

Operator
Country
O3B
Launch date
2025-07-22
Launch site
AFETR
Launch vehicle
Mass (kg)
RCS (m²)

Purposes: comms

External: N2YO · Heavens-Above · Gunter

§ Orbital elements

Epoch: 2026-09-18T07:47:45.172896Z

Period
287.93 min
Inclination
0.0667°
Eccentricity
0.0007359
Mean motion
5.00115421 rev/d
Perigee alt
8,055.3 km
Apogee alt
8,076.5 km
Semi-major
14,444.0 km
B*
0.0000e+0
RAAN
356.6257°
Arg perigee
192.3150°
Mean anomaly
171.0483°
Rev number
2,421

§ Raw data

O3B MPOWER F91 64866U 25153A   26261.32482839 -.00000028  00000+0  00000+0 0  99912 64866   0.0667 356.6257 0007359 192.3150 171.0483  5.00115421 24212

JSON: /api/v1/satellites/64866 · /tle

For live sub-satellite position, see the globe view (requires WebGL).

§ Visibility from observer

Set your observer location to see the next 7 days of passes ≥ 10°. The values pass through the URL so the page stays shareable.

No JS? Fill the form by hand. The geolocation button needs JavaScript.